TimeAKDT,TemperatureF,Dew PointF,Humidity,Sea Level PressureIn,VisibilityMPH,Wind Direction,Wind SpeedMPH,Gust SpeedMPH,PrecipitationIn,Events,Conditions,WindDirDegrees,DateUTC
12:16 AM,62.6,50.0,63,29.56,10.0,Calm,Calm,-,N/A,,Overcast,0,2013-07-08 08:16:00
12:36 AM,62.6,50.0,63,29.56,10.0,Calm,Calm,-,N/A,,Overcast,0,2013-07-08 08:36:00
12:56 AM,62.6,50.0,63,29.56,10.0,Calm,Calm,-,N/A,,Overcast,0,2013-07-08 08:56:00
1:16 AM,59.0,50.0,72,29.56,10.0,Calm,Calm,-,N/A,,Mostly Cloudy,0,2013-07-08 09:16:00
1:36 AM,57.2,51.8,82,29.55,10.0,Calm,Calm,-,N/A,,Partly Cloudy,0,2013-07-08 09:36:00
1:56 AM,57.2,48.2,72,29.55,10.0,NW,3.5,-,N/A,,Clear,310,2013-07-08 09:56:00
2:16 AM,55.4,48.2,77,29.55,10.0,NNW,3.5,-,N/A,,Clear,340,2013-07-08 10:16:00
2:36 AM,55.4,48.2,77,29.56,10.0,Calm,Calm,-,N/A,,Clear,0,2013-07-08 10:36:00
2:56 AM,55.4,48.2,77,29.56,10.0,NNW,3.5,-,N/A,,Clear,340,2013-07-08 10:56:00
3:16 AM,53.6,46.4,77,29.56,10.0,Calm,Calm,-,N/A,,Clear,0,2013-07-08 11:16:00
3:36 AM,51.8,46.4,82,29.56,10.0,WNW,3.5,-,N/A,,Clear,300,2013-07-08 11:36:00
3:56 AM,53.6,46.4,77,29.57,10.0,NW,3.5,-,N/A,,Partly Cloudy,310,2013-07-08 11:56:00
4:16 AM,51.8,46.4,82,29.57,10.0,Calm,Calm,-,N/A,,Scattered Clouds,0,2013-07-08 12:16:00
4:36 AM,51.8,46.4,82,29.57,10.0,Calm,Calm,-,N/A,,Partly Cloudy,0,2013-07-08 12:36:00
4:56 AM,51.8,46.4,82,29.58,10.0,East,3.5,-,N/A,,Clear,100,2013-07-08 12:56:00
5:16 AM,53.6,46.4,77,29.57,10.0,Calm,Calm,-,N/A,,Clear,0,2013-07-08 13:16:00
5:36 AM,55.4,46.4,72,29.58,10.0,Calm,Calm,-,N/A,,Clear,0,2013-07-08 13:36:00
5:56 AM,55.4,48.2,77,29.58,10.0,ENE,3.5,-,N/A,,Clear,70,2013-07-08 13:56:00
6:16 AM,55.4,48.2,77,29.58,10.0,ENE,3.5,-,N/A,,Clear,60,2013-07-08 14:16:00
6:36 AM,55.4,44.6,67,29.58,10.0,NE,4.6,-,N/A,,Clear,50,2013-07-08 14:36:00
6:56 AM,55.4,44.6,67,29.58,10.0,NNE,6.9,-,N/A,,Clear,20,2013-07-08 14:56:00
7:16 AM,55.4,44.6,67,29.58,10.0,NE,4.6,-,N/A,,Clear,50,2013-07-08 15:16:00
7:36 AM,57.2,46.4,67,29.58,10.0,NE,4.6,-,N/A,,Clear,50,2013-07-08 15:36:00
7:56 AM,57.2,46.4,67,29.58,10.0,NNE,4.6,-,N/A,,Clear,30,2013-07-08 15:56:00
8:16 AM,57.2,44.6,63,29.59,10.0,NE,4.6,-,N/A,,Clear,40,2013-07-08 16:16:00
8:36 AM,57.2,46.4,67,29.59,10.0,NE,3.5,-,N/A,,Clear,50,2013-07-08 16:36:00
8:56 AM,57.2,46.4,67,29.60,10.0,NE,5.8,-,N/A,,Clear,50,2013-07-08 16:56:00
9:16 AM,59.0,46.4,63,29.61,10.0,Calm,Calm,-,N/A,,Clear,0,2013-07-08 17:16:00
9:36 AM,60.8,46.4,59,29.61,10.0,East,3.5,-,N/A,,Clear,80,2013-07-08 17:36:00
9:56 AM,60.8,48.2,63,29.61,10.0,ENE,4.6,-,N/A,,Clear,70,2013-07-08 17:56:00
10:16 AM,60.8,48.2,63,29.61,10.0,Calm,Calm,-,N/A,,Clear,0,2013-07-08 18:16:00
10:36 AM,60.8,50.0,68,29.62,10.0,Calm,Calm,-,N/A,,Clear,0,2013-07-08 18:36:00
10:56 AM,60.8,50.0,68,29.62,10.0,SE,4.6,-,N/A,,Clear,140,2013-07-08 18:56:00
11:16 AM,60.8,51.8,72,29.63,10.0,SSE,3.5,-,N/A,,Partly Cloudy,150,2013-07-08 19:16:00
11:36 AM,60.8,51.8,72,29.62,10.0,SSE,3.5,-,N/A,,Partly Cloudy,150,2013-07-08 19:36:00
11:56 AM,59.0,50.0,72,29.62,10.0,Calm,Calm,-,N/A,,Clear,0,2013-07-08 19:56:00
12:16 PM,60.8,51.8,72,29.63,10.0,Calm,Calm,-,N/A,,Clear,0,2013-07-08 20:16:00
12:36 PM,60.8,51.8,72,29.63,10.0,Calm,Calm,-,N/A,,Clear,0,2013-07-08 20:36:00
12:56 PM,60.8,51.8,72,29.63,10.0,Calm,Calm,-,N/A,,Partly Cloudy,0,2013-07-08 20:56:00
1:16 PM,62.6,51.8,68,29.62,10.0,Calm,Calm,-,N/A,,Partly Cloudy,0,2013-07-08 21:16:00
1:36 PM,62.6,51.8,68,29.62,10.0,West,4.6,-,N/A,,Mostly Cloudy,270,2013-07-08 21:36:00
1:56 PM,62.6,51.8,68,29.63,10.0,WNW,3.5,-,N/A,,Overcast,300,2013-07-08 21:56:00
2:16 PM,62.6,50.0,63,29.63,10.0,Calm,Calm,-,N/A,,Mostly Cloudy,0,2013-07-08 22:16:00
2:36 PM,62.6,51.8,68,29.63,10.0,West,4.6,-,N/A,,Partly Cloudy,260,2013-07-08 22:36:00
2:56 PM,62.6,50.0,63,29.63,10.0,West,4.6,-,N/A,,Partly Cloudy,260,2013-07-08 22:56:00
3:16 PM,62.6,51.8,68,29.64,10.0,WSW,3.5,-,N/A,,Clear,240,2013-07-08 23:16:00
3:36 PM,62.6,51.8,68,29.64,10.0,SW,4.6,-,N/A,,Clear,220,2013-07-08 23:36:00
3:56 PM,62.6,50.0,63,29.64,10.0,SW,3.5,-,N/A,,Clear,220,2013-07-08 23:56:00
4:16 PM,64.4,50.0,59,29.64,10.0,Calm,Calm,-,N/A,,Clear,0,2013-07-09 00:16:00
4:36 PM,64.4,48.2,56,29.64,10.0,SW,3.5,-,N/A,,Clear,230,2013-07-09 00:36:00
4:56 PM,64.4,48.2,56,29.64,10.0,SW,5.8,-,N/A,,Partly Cloudy,220,2013-07-09 00:56:00
5:16 PM,64.4,48.2,56,29.63,10.0,SW,3.5,-,N/A,,Mostly Cloudy,220,2013-07-09 01:16:00
5:36 PM,64.4,48.2,56,29.63,10.0,SSW,4.6,-,N/A,,Overcast,210,2013-07-09 01:36:00
5:56 PM,66.2,48.2,52,29.63,10.0,South,3.5,-,N/A,,Overcast,190,2013-07-09 01:56:00
6:16 PM,66.2,48.2,52,29.64,10.0,South,4.6,-,N/A,,Overcast,190,2013-07-09 02:16:00
6:36 PM,66.2,48.2,52,29.64,10.0,Calm,Calm,-,N/A,,Overcast,0,2013-07-09 02:36:00
6:56 PM,64.4,48.2,56,29.64,10.0,NE,3.5,-,N/A,,Overcast,50,2013-07-09 02:56:00
7:16 PM,64.4,46.4,52,29.64,10.0,Calm,Calm,-,N/A,,Overcast,0,2013-07-09 03:16:00
7:36 PM,64.4,46.4,52,29.64,10.0,Calm,Calm,-,N/A,,Overcast,0,2013-07-09 03:36:00
7:56 PM,62.6,46.4,55,29.64,10.0,NE,3.5,-,N/A,,Overcast,40,2013-07-09 03:56:00
8:16 PM,62.6,44.6,52,29.65,10.0,NE,4.6,-,N/A,,Overcast,40,2013-07-09 04:16:00
8:36 PM,62.6,44.6,52,29.65,10.0,NNE,4.6,-,N/A,,Overcast,20,2013-07-09 04:36:00
8:56 PM,62.6,44.6,52,29.65,10.0,NNE,6.9,-,N/A,,Overcast,20,2013-07-09 04:56:00
9:16 PM,62.6,44.6,52,29.66,10.0,NNE,4.6,-,N/A,,Overcast,20,2013-07-09 05:16:00
9:36 PM,60.8,44.6,55,29.66,10.0,North,5.8,-,N/A,,Overcast,10,2013-07-09 05:36:00
9:56 PM,60.8,44.6,55,29.66,10.0,North,6.9,-,N/A,,Overcast,360,2013-07-09 05:56:00
10:16 PM,60.8,44.6,55,29.66,10.0,North,10.4,17.3,N/A,,Overcast,10,2013-07-09 06:16:00
10:36 PM,60.8,44.6,55,29.66,10.0,North,5.8,-,N/A,,Overcast,10,2013-07-09 06:36:00
10:56 PM,60.8,42.8,52,29.66,10.0,North,6.9,-,N/A,,Scattered Clouds,360,2013-07-09 06:56:00
11:16 PM,59.0,42.8,55,29.67,10.0,North,5.8,-,N/A,,Partly Cloudy,10,2013-07-09 07:16:00
11:36 PM,57.2,42.8,59,29.68,10.0,NNE,4.6,-,N/A,,Scattered Clouds,30,2013-07-09 07:36:00
11:56 PM,57.2,42.8,59,29.68,10.0,North,9.2,-,N/A,,Partly Cloudy,10,2013-07-09 07:56:00